Location: Unspecified
(0.0000°N, 0.0000°E)
Time: 04:35:33
(UTC+01:00)

Tiros 1 despin weight - Visible Passes

Search period start: 26 October 2014 00:00
Search period end: 04 November 2014 23:00
Orbit: 601 x 652 km, 48.2° (Epoch: 24 October)

Date Brightness Start Highest point End Pass type
(mag) Time Alt. Az. Time Alt. Az. Time Alt. Az.
26 Oct ? 04:57:04 69° SSE 04:57:22 71° SE 05:02:03 10° NE visible
27 Oct ? 05:17:31 34° NNW 05:17:31 34° NNW 05:20:52 10° NNE visible
28 Oct ? 05:37:38 12° NNW 05:37:38 12° NNW 05:38:13 10° NNW visible
